Time,TemperatureF,DewpointF,PressureIn,WindDirection,WindDirectionDegrees,WindSpeedMPH,WindSpeedGustMPH,Humidity,HourlyPrecipIn,Conditions,Clouds,dailyrainin,SolarRadiationWatts/m^2,SoftwareType,DateUTC
2013-05-12 00:01:00,42.0,30.3,30.55,SSE,157,1.0,1.0,63,0.00,,,0.00,0,LWC V2.00 B727,2013-05-12 06:01:00,
2013-05-12 00:06:00,41.6,30.3,30.55,SSE,158,0.0,3.0,64,0.00,,,0.00,0,LWC V2.00 B727,2013-05-12 06:06:00,
2013-05-12 00:11:00,41.3,30.1,30.55,SSE,157,2.0,2.0,64,0.00,,,0.00,0,LWC V2.00 B727,2013-05-12 06:11:00,
2013-05-12 00:16:00,41.1,30.2,30.54,SSE,157,1.0,3.0,65,0.00,,,0.00,0,LWC V2.00 B727,2013-05-12 06:16:00,
2013-05-12 00:21:00,40.9,29.7,30.54,SSE,157,1.0,2.0,64,0.00,,,0.00,0,LWC V2.00 B727,2013-05-12 06:21:00,
2013-05-12 00:26:00,40.7,29.9,30.54,SSE,157,1.0,2.0,65,0.00,,,0.00,0,LWC V2.00 B727,2013-05-12 06:26:00,
2013-05-12 00:31:00,40.5,29.7,30.54,SSE,159,0.0,1.0,65,0.00,,,0.00,0,LWC V2.00 B727,2013-05-12 06:31:00,
2013-05-12 00:36:00,40.3,29.5,30.54,SSE,155,2.0,4.0,65,0.00,,,0.00,0,LWC V2.00 B727,2013-05-12 06:36:00,
2013-05-12 00:41:00,40.0,29.6,30.54,SSE,160,3.0,4.0,66,0.00,,,0.00,0,LWC V2.00 B727,2013-05-12 06:41:00,
2013-05-12 00:46:00,39.8,29.4,30.54,South,176,3.0,5.0,66,0.00,,,0.00,0,LWC V2.00 B727,2013-05-12 06:46:00,
2013-05-12 00:51:00,39.5,29.1,30.55,South,175,1.0,4.0,66,0.00,,,0.00,0,LWC V2.00 B727,2013-05-12 06:51:00,
2013-05-12 00:56:00,39.2,29.2,30.55,South,179,1.0,4.0,67,0.00,,,0.00,0,LWC V2.00 B727,2013-05-12 06:56:00,
2013-05-12 01:01:00,39.0,29.0,30.55,SSW,200,1.0,5.0,67,0.00,,,0.00,0,LWC V2.00 B727,2013-05-12 07:01:00,
2013-05-12 01:06:00,38.9,28.9,30.55,South,185,1.0,2.0,67,0.00,,,0.00,0,LWC V2.00 B727,2013-05-12 07:06:00,
2013-05-12 01:11:00,38.8,28.8,30.55,South,184,0.0,2.0,67,0.00,,,0.00,0,LWC V2.00 B727,2013-05-12 07:11:00,
2013-05-12 01:16:00,38.5,28.9,30.55,South,184,0.0,0.0,68,0.00,,,0.00,0,LWC V2.00 B727,2013-05-12 07:16:00,
2013-05-12 01:21:00,38.3,28.7,30.55,South,184,1.0,1.0,68,0.00,,,0.00,0,LWC V2.00 B727,2013-05-12 07:21:00,
2013-05-12 01:26:00,38.0,28.4,30.55,South,184,0.0,1.0,68,0.00,,,0.00,0,LWC V2.00 B727,2013-05-12 07:26:00,
2013-05-12 01:31:00,37.8,28.6,30.55,South,169,1.0,2.0,69,0.00,,,0.00,0,LWC V2.00 B727,2013-05-12 07:31:00,
2013-05-12 01:36:00,37.5,28.3,30.55,SSE,167,1.0,2.0,69,0.00,,,0.00,0,LWC V2.00 B727,2013-05-12 07:36:00,
2013-05-12 01:41:00,37.3,28.1,30.54,SSE,167,1.0,2.0,69,0.00,,,0.00,0,LWC V2.00 B727,2013-05-12 07:41:00,
2013-05-12 01:46:00,37.1,28.2,30.54,SSE,167,0.0,0.0,70,0.00,,,0.00,0,LWC V2.00 B727,2013-05-12 07:46:00,
2013-05-12 01:51:00,36.9,28.0,30.54,SSE,165,3.0,3.0,70,0.00,,,0.00,0,LWC V2.00 B727,2013-05-12 07:51:00,
2013-05-12 01:56:00,36.8,28.3,30.54,SSE,167,2.0,4.0,71,0.00,,,0.00,0,LWC V2.00 B727,2013-05-12 07:56:00,
2013-05-12 02:01:00,36.8,28.3,30.54,SSE,165,1.0,2.0,71,0.00,,,0.00,0,LWC V2.00 B727,2013-05-12 08:01:00,
2013-05-12 02:06:00,36.8,27.9,30.54,SSE,159,1.0,3.0,70,0.00,,,0.00,0,LWC V2.00 B727,2013-05-12 08:06:00,
2013-05-12 02:11:00,36.8,27.9,30.54,SSE,160,3.0,4.0,70,0.00,,,0.00,0,LWC V2.00 B727,2013-05-12 08:11:00,
2013-05-12 02:16:00,36.8,28.3,30.54,SSE,148,3.0,6.0,71,0.00,,,0.00,0,LWC V2.00 B727,2013-05-12 08:16:00,
2013-05-12 02:21:00,36.9,28.0,30.54,South,178,3.0,3.0,70,0.00,,,0.00,0,LWC V2.00 B727,2013-05-12 08:21:00,
2013-05-12 02:26:00,37.0,28.1,30.53,SSE,164,1.0,3.0,70,0.00,,,0.00,0,LWC V2.00 B727,2013-05-12 08:26:00,
2013-05-12 02:31:00,36.9,28.0,30.53,SSE,153,2.0,4.0,70,0.00,,,0.00,0,LWC V2.00 B727,2013-05-12 08:31:00,
2013-05-12 02:36:00,37.0,28.1,30.53,South,171,2.0,4.0,70,0.00,,,0.00,0,LWC V2.00 B727,2013-05-12 08:36:00,
2013-05-12 02:41:00,37.0,28.1,30.53,SSE,155,0.0,4.0,70,0.00,,,0.00,0,LWC V2.00 B727,2013-05-12 08:41:00,
2013-05-12 02:46:00,37.0,28.1,30.54,SSE,161,2.0,3.0,70,0.00,,,0.00,0,LWC V2.00 B727,2013-05-12 08:46:00,
2013-05-12 02:51:00,36.9,28.0,30.54,SSE,166,3.0,3.0,70,0.00,,,0.00,0,LWC V2.00 B727,2013-05-12 08:51:00,
2013-05-12 02:56:00,36.6,27.8,30.53,South,173,3.0,5.0,70,0.00,,,0.00,0,LWC V2.00 B727,2013-05-12 08:56:00,
2013-05-12 03:01:00,36.4,27.6,30.53,South,179,4.0,5.0,70,0.00,,,0.00,0,LWC V2.00 B727,2013-05-12 09:01:00,
2013-05-12 03:06:00,36.2,27.4,30.53,South,184,1.0,3.0,70,0.00,,,0.00,0,LWC V2.00 B727,2013-05-12 09:06:00,
2013-05-12 03:11:00,36.1,27.6,30.53,SSE,163,0.0,3.0,71,0.00,,,0.00,0,LWC V2.00 B727,2013-05-12 09:11:00,
2013-05-12 03:16:00,36.0,27.5,30.54,SSE,157,3.0,3.0,71,0.00,,,0.00,0,LWC V2.00 B727,2013-05-12 09:16:00,
2013-05-12 03:21:00,36.0,27.5,30.54,South,171,2.0,4.0,71,0.00,,,0.00,0,LWC V2.00 B727,2013-05-12 09:21:00,
2013-05-12 03:26:00,36.1,27.6,30.54,SE,143,4.0,4.0,71,0.00,,,0.00,0,LWC V2.00 B727,2013-05-12 09:26:00,
2013-05-12 03:31:00,36.3,27.8,30.54,SSE,168,4.0,4.0,71,0.00,,,0.00,0,LWC V2.00 B727,2013-05-12 09:31:00,
2013-05-12 03:36:00,36.4,27.6,30.54,South,178,2.0,2.0,70,0.00,,,0.00,0,LWC V2.00 B727,2013-05-12 09:36:00,
2013-05-12 03:41:00,36.4,27.9,30.54,SSE,161,1.0,3.0,71,0.00,,,0.00,0,LWC V2.00 B727,2013-05-12 09:41:00,
2013-05-12 03:46:00,36.3,27.5,30.54,SSE,167,2.0,2.0,70,0.00,,,0.00,0,LWC V2.00 B727,2013-05-12 09:46:00,
2013-05-12 03:51:00,36.1,27.6,30.54,SSE,147,0.0,3.0,71,0.00,,,0.00,0,LWC V2.00 B727,2013-05-12 09:51:00,
2013-05-12 03:56:00,35.8,27.3,30.54,SSE,150,3.0,3.0,71,0.00,,,0.00,0,LWC V2.00 B727,2013-05-12 09:56:00,
2013-05-12 04:01:00,35.5,27.4,30.54,South,172,3.0,3.0,72,0.00,,,0.00,0,LWC V2.00 B727,2013-05-12 10:01:00,
2013-05-12 04:06:00,35.4,27.3,30.54,SSE,165,1.0,4.0,72,0.00,,,0.00,0,LWC V2.00 B727,2013-05-12 10:06:00,
2013-05-12 04:11:00,35.3,27.2,30.54,SSE,167,1.0,3.0,72,0.00,,,0.00,0,LWC V2.00 B727,2013-05-12 10:11:00,
2013-05-12 04:16:00,35.2,27.1,30.54,SSE,156,1.0,4.0,72,0.00,,,0.00,0,LWC V2.00 B727,2013-05-12 10:16:00,
2013-05-12 04:21:00,35.2,27.1,30.55,SSE,157,2.0,3.0,72,0.00,,,0.00,0,LWC V2.00 B727,2013-05-12 10:21:00,
2013-05-12 04:26:00,35.0,27.2,30.55,SSE,152,0.0,2.0,73,0.00,,,0.00,0,LWC V2.00 B727,2013-05-12 10:26:00,
2013-05-12 04:31:00,34.9,27.1,30.54,SSE,153,0.0,3.0,73,0.00,,,0.00,0,LWC V2.00 B727,2013-05-12 10:31:00,
2013-05-12 04:36:00,34.8,27.0,30.55,SSE,152,0.0,1.0,73,0.00,,,0.00,0,LWC V2.00 B727,2013-05-12 10:36:00,
2013-05-12 04:41:00,34.7,27.3,30.55,SSE,168,2.0,4.0,74,0.00,,,0.00,0,LWC V2.00 B727,2013-05-12 10:41:00,
2013-05-12 04:46:00,34.7,27.3,30.55,SSE,164,2.0,3.0,74,0.00,,,0.00,0,LWC V2.00 B727,2013-05-12 10:46:00,
2013-05-12 04:51:00,34.8,27.7,30.55,South,169,1.0,4.0,75,0.00,,,0.00,0,LWC V2.00 B727,2013-05-12 10:51:00,
2013-05-12 04:56:00,34.9,27.5,30.55,SSE,164,1.0,3.0,74,0.00,,,0.00,0,LWC V2.00 B727,2013-05-12 10:56:00,
2013-05-12 05:01:00,34.9,27.5,30.55,South,177,1.0,4.0,74,0.00,,,0.00,0,LWC V2.00 B727,2013-05-12 11:01:00,
2013-05-12 05:06:00,34.8,27.4,30.55,South,180,2.0,4.0,74,0.00,,,0.00,0,LWC V2.00 B727,2013-05-12 11:06:00,
2013-05-12 05:11:00,34.7,26.9,30.55,South,177,1.0,4.0,73,0.00,,,0.00,0,LWC V2.00 B727,2013-05-12 11:11:00,
2013-05-12 05:16:00,34.6,27.2,30.55,SSE,166,1.0,2.0,74,0.00,,,0.00,0,LWC V2.00 B727,2013-05-12 11:16:00,
2013-05-12 05:21:00,34.5,27.1,30.55,SSE,153,3.0,4.0,74,0.00,,,0.00,0,LWC V2.00 B727,2013-05-12 11:21:00,
2013-05-12 05:26:00,34.4,27.0,30.55,South,173,1.0,4.0,74,0.00,,,0.00,0,LWC V2.00 B727,2013-05-12 11:26:00,
2013-05-12 05:31:00,34.4,27.0,30.55,SSE,167,2.0,4.0,74,0.00,,,0.00,0,LWC V2.00 B727,2013-05-12 11:31:00,
2013-05-12 05:36:00,34.4,27.3,30.55,South,182,2.0,5.0,75,0.00,,,0.00,0,LWC V2.00 B727,2013-05-12 11:36:00,
2013-05-12 05:41:00,34.4,27.3,30.55,SSE,151,3.0,3.0,75,0.00,,,0.00,0,LWC V2.00 B727,2013-05-12 11:41:00,
2013-05-12 05:46:00,34.6,27.5,30.55,SSE,161,1.0,4.0,75,0.00,,,0.00,0,LWC V2.00 B727,2013-05-12 11:46:00,
2013-05-12 05:51:00,34.7,27.6,30.55,SSE,159,0.0,4.0,75,0.00,,,0.00,0,LWC V2.00 B727,2013-05-12 11:51:00,
2013-05-12 05:56:00,34.7,27.6,30.55,SSE,159,0.0,3.0,75,0.00,,,0.00,0,LWC V2.00 B727,2013-05-12 11:56:00,
2013-05-12 06:01:00,34.7,27.6,30.55,SSE,165,2.0,4.0,75,0.00,,,0.00,5,LWC V2.00 B727,2013-05-12 12:01:00,
2013-05-12 06:06:00,34.7,27.6,30.55,SSE,168,0.0,3.0,75,0.00,,,0.00,7,LWC V2.00 B727,2013-05-12 12:06:00,
2013-05-12 06:11:00,34.7,27.6,30.55,South,170,1.0,3.0,75,0.00,,,0.00,11,LWC V2.00 B727,2013-05-12 12:11:00,
2013-05-12 06:16:00,34.6,27.5,30.55,South,186,2.0,3.0,75,0.00,,,0.00,12,LWC V2.00 B727,2013-05-12 12:16:00,
2013-05-12 06:21:00,34.6,27.5,30.55,SSE,168,2.0,4.0,75,0.00,,,0.00,16,LWC V2.00 B727,2013-05-12 12:21:00,
2013-05-12 06:26:00,34.7,27.9,30.55,South,169,2.0,2.0,76,0.00,,,0.00,18,LWC V2.00 B727,2013-05-12 12:26:00,
2013-05-12 06:31:00,34.8,28.0,30.55,South,169,1.0,2.0,76,0.00,,,0.00,21,LWC V2.00 B727,2013-05-12 12:31:00,
2013-05-12 06:36:00,35.0,28.2,30.55,SSE,168,1.0,3.0,76,0.00,,,0.00,25,LWC V2.00 B727,2013-05-12 12:36:00,
2013-05-12 06:41:00,35.3,28.5,30.55,South,169,1.0,2.0,76,0.00,,,0.00,35,LWC V2.00 B727,2013-05-12 12:41:00,
2013-05-12 06:46:00,35.7,29.2,30.55,South,171,0.0,2.0,77,0.00,,,0.00,46,LWC V2.00 B727,2013-05-12 12:46:00,
2013-05-12 06:51:00,36.2,29.4,30.55,South,173,3.0,3.0,76,0.00,,,0.00,62,LWC V2.00 B727,2013-05-12 12:51:00,
2013-05-12 06:56:00,36.8,30.0,30.55,South,173,0.0,2.0,76,0.00,,,0.00,76,LWC V2.00 B727,2013-05-12 12:56:00,
2013-05-12 07:01:00,37.5,30.3,30.55,South,173,2.0,2.0,75,0.00,,,0.00,93,LWC V2.00 B727,2013-05-12 13:01:00,
2013-05-12 07:06:00,38.2,31.0,30.56,South,173,0.0,2.0,75,0.00,,,0.00,111,LWC V2.00 B727,2013-05-12 13:06:00,
2013-05-12 07:11:00,39.0,31.4,30.56,South,173,0.0,2.0,74,0.00,,,0.00,132,LWC V2.00 B727,2013-05-12 13:11:00,
2013-05-12 07:16:00,39.9,32.0,30.56,South,173,0.0,2.0,73,0.00,,,0.00,155,LWC V2.00 B727,2013-05-12 13:16:00,
2013-05-12 07:21:00,40.8,32.1,30.56,South,176,0.0,2.0,71,0.00,,,0.00,171,LWC V2.00 B727,2013-05-12 13:21:00,
2013-05-12 07:26:00,41.7,33.0,30.56,South,176,1.0,1.0,71,0.00,,,0.00,195,LWC V2.00 B727,2013-05-12 13:26:00,
2013-05-12 07:31:00,42.5,33.4,30.55,South,176,1.0,1.0,70,0.00,,,0.00,216,LWC V2.00 B727,2013-05-12 13:31:00,
2013-05-12 07:36:00,43.6,33.7,30.55,South,178,2.0,3.0,68,0.00,,,0.00,237,LWC V2.00 B727,2013-05-12 13:36:00,
2013-05-12 07:41:00,44.7,34.0,30.55,South,178,0.0,2.0,66,0.00,,,0.00,257,LWC V2.00 B727,2013-05-12 13:41:00,
2013-05-12 07:46:00,45.4,33.6,30.55,South,178,0.0,0.0,63,0.00,,,0.00,279,LWC V2.00 B727,2013-05-12 13:46:00,
2013-05-12 07:51:00,46.3,34.4,30.54,SSW,199,0.0,0.0,63,0.00,,,0.00,299,LWC V2.00 B727,2013-05-12 13:51:00,
2013-05-12 07:56:00,47.3,35.7,30.55,SSW,199,0.0,0.0,64,0.00,,,0.00,318,LWC V2.00 B727,2013-05-12 13:56:00,
2013-05-12 08:01:00,48.4,35.6,30.55,SSW,199,0.0,2.0,61,0.00,,,0.00,336,LWC V2.00 B727,2013-05-12 14:01:00,
2013-05-12 08:06:00,49.6,35.9,30.54,NNW,340,1.0,3.0,59,0.00,,,0.00,352,LWC V2.00 B727,2013-05-12 14:06:00,
2013-05-12 08:11:00,50.4,35.7,30.54,NNW,340,0.0,0.0,57,0.00,,,0.00,367,LWC V2.00 B727,2013-05-12 14:11:00,
2013-05-12 08:16:00,51.3,36.1,30.54,NNW,340,0.0,0.0,56,0.00,,,0.00,387,LWC V2.00 B727,2013-05-12 14:16:00,
2013-05-12 08:21:00,52.0,36.3,30.54,NNW,340,0.0,2.0,55,0.00,,,0.00,410,LWC V2.00 B727,2013-05-12 14:21:00,
2013-05-12 08:26:00,52.8,37.1,30.53,North,355,4.0,4.0,55,0.00,,,0.00,429,LWC V2.00 B727,2013-05-12 14:26:00,
2013-05-12 08:31:00,53.5,36.8,30.53,NNW,342,3.0,3.0,53,0.00,,,0.00,441,LWC V2.00 B727,2013-05-12 14:31:00,
2013-05-12 08:36:00,53.8,36.1,30.53,North,11,4.0,5.0,51,0.00,,,0.00,457,LWC V2.00 B727,2013-05-12 14:36:00,
2013-05-12 08:41:00,54.3,38.0,30.53,NNE,21,2.0,4.0,54,0.00,,,0.00,466,LWC V2.00 B727,2013-05-12 14:41:00,
2013-05-12 08:46:00,54.7,36.9,30.53,NNW,337,6.0,6.0,51,0.00,,,0.00,489,LWC V2.00 B727,2013-05-12 14:46:00,
2013-05-12 08:51:00,55.0,36.7,30.53,North,11,0.0,4.0,50,0.00,,,0.00,512,LWC V2.00 B727,2013-05-12 14:51:00,
2013-05-12 08:56:00,55.2,36.9,30.53,NNW,344,4.0,5.0,50,0.00,,,0.00,531,LWC V2.00 B727,2013-05-12 14:56:00,
2013-05-12 09:01:00,55.5,37.7,30.53,North,11,4.0,5.0,51,0.00,,,0.00,531,LWC V2.00 B727,2013-05-12 15:01:00,
2013-05-12 09:06:00,55.9,38.0,30.53,North,5,2.0,4.0,51,0.00,,,0.00,545,LWC V2.00 B727,2013-05-12 15:06:00,
2013-05-12 09:11:00,56.1,36.7,30.53,NNW,346,1.0,5.0,48,0.00,,,0.00,584,LWC V2.00 B727,2013-05-12 15:11:00,
2013-05-12 09:16:00,56.3,37.4,30.53,NNW,346,3.0,3.0,49,0.00,,,0.00,596,LWC V2.00 B727,2013-05-12 15:16:00,
2013-05-12 09:21:00,56.6,36.1,30.53,SW,232,1.0,4.0,46,0.00,,,0.00,485,LWC V2.00 B727,2013-05-12 15:21:00,
2013-05-12 09:26:00,56.7,35.0,30.53,WSW,250,2.0,8.0,44,0.00,,,0.00,617,LWC V2.00 B727,2013-05-12 15:26:00,
2013-05-12 09:31:00,57.0,35.9,30.52,WNW,296,0.0,0.0,45,0.00,,,0.00,642,LWC V2.00 B727,2013-05-12 15:31:00,
2013-05-12 09:36:00,57.2,36.1,30.52,NNW,334,2.0,2.0,45,0.00,,,0.00,664,LWC V2.00 B727,2013-05-12 15:36:00,
2013-05-12 09:41:00,57.8,38.2,30.52,NNW,342,0.0,2.0,48,0.00,,,0.00,661,LWC V2.00 B727,2013-05-12 15:41:00,
2013-05-12 09:46:00,58.3,35.9,30.52,NNW,342,0.0,0.0,43,0.00,,,0.00,729,LWC V2.00 B727,2013-05-12 15:46:00,
2013-05-12 09:51:00,59.0,36.5,30.52,North,9,2.0,5.0,43,0.00,,,0.00,587,LWC V2.00 B727,2013-05-12 15:51:00,
2013-05-12 09:56:00,59.0,36.5,30.51,NNE,24,1.0,2.0,43,0.00,,,0.00,413,LWC V2.00 B727,2013-05-12 15:56:00,
2013-05-12 10:01:00,58.8,35.2,30.51,NNW,346,3.0,5.0,41,0.00,,,0.00,427,LWC V2.00 B727,2013-05-12 16:01:00,
2013-05-12 10:06:00,58.5,36.1,30.51,NNW,346,4.0,4.0,43,0.00,,,0.00,563,LWC V2.00 B727,2013-05-12 16:06:00,
2013-05-12 10:11:00,58.3,35.3,30.51,NNW,348,0.0,5.0,42,0.00,,,0.00,626,LWC V2.00 B727,2013-05-12 16:11:00,
2013-05-12 10:16:00,58.5,35.5,30.51,North,355,0.0,4.0,42,0.00,,,0.00,840,LWC V2.00 B727,2013-05-12 16:16:00,
2013-05-12 10:21:00,59.0,37.1,30.51,East,83,2.0,5.0,44,0.00,,,0.00,817,LWC V2.00 B727,2013-05-12 16:21:00,
2013-05-12 10:26:00,59.5,37.0,30.51,SE,138,1.0,2.0,43,0.00,,,0.00,608,LWC V2.00 B727,2013-05-12 16:26:00,
2013-05-12 10:31:00,60.0,37.4,30.50,NNE,28,1.0,6.0,43,0.00,,,0.00,805,LWC V2.00 B727,2013-05-12 16:31:00,
2013-05-12 10:36:00,60.5,38.5,30.50,NW,326,3.0,4.0,44,0.00,,,0.00,824,LWC V2.00 B727,2013-05-12 16:36:00,
2013-05-12 10:41:00,61.1,37.2,30.50,SW,227,5.0,6.0,41,0.00,,,0.00,888,LWC V2.00 B727,2013-05-12 16:41:00,
2013-05-12 10:46:00,61.4,36.2,30.50,SW,229,2.0,5.0,39,0.00,,,0.00,879,LWC V2.00 B727,2013-05-12 16:46:00,
2013-05-12 10:51:00,61.8,36.6,30.50,WSW,244,3.0,6.0,39,0.00,,,0.00,886,LWC V2.00 B727,2013-05-12 16:51:00,
2013-05-12 10:56:00,62.2,37.6,30.49,NW,319,1.0,4.0,40,0.00,,,0.00,893,LWC V2.00 B727,2013-05-12 16:56:00,
2013-05-12 11:01:00,62.5,36.5,30.49,NNE,17,3.0,5.0,38,0.00,,,0.00,902,LWC V2.00 B727,2013-05-12 17:01:00,
2013-05-12 11:06:00,63.0,37.0,30.48,NNE,17,0.0,3.0,38,0.00,,,0.00,919,LWC V2.00 B727,2013-05-12 17:06:00,
2013-05-12 11:11:00,63.4,38.0,30.48,NNW,336,6.0,6.0,39,0.00,,,0.00,940,LWC V2.00 B727,2013-05-12 17:11:00,
2013-05-12 11:16:00,63.5,36.1,30.48,North,0,0.0,1.0,36,0.00,,,0.00,896,LWC V2.00 B727,2013-05-12 17:16:00,
2013-05-12 11:21:00,63.8,37.7,30.48,NNE,24,5.0,7.0,38,0.00,,,0.00,963,LWC V2.00 B727,2013-05-12 17:21:00,
2013-05-12 11:26:00,63.9,35.7,30.47,WSW,244,3.0,5.0,35,0.00,,,0.00,974,LWC V2.00 B727,2013-05-12 17:26:00,
2013-05-12 11:31:00,64.3,38.8,30.46,SSE,161,0.0,7.0,39,0.00,,,0.00,986,LWC V2.00 B727,2013-05-12 17:31:00,
2013-05-12 11:36:00,64.8,36.5,30.46,SSW,207,0.0,2.0,35,0.00,,,0.00,979,LWC V2.00 B727,2013-05-12 17:36:00,
2013-05-12 11:41:00,65.3,38.4,30.45,NE,43,3.0,6.0,37,0.00,,,0.00,993,LWC V2.00 B727,2013-05-12 17:41:00,
2013-05-12 11:46:00,65.9,36.7,30.45,NNW,344,4.0,6.0,34,0.00,,,0.00,1025,LWC V2.00 B727,2013-05-12 17:46:00,
2013-05-12 11:51:00,66.1,39.1,30.45,North,0,4.0,7.0,37,0.00,,,0.00,1023,LWC V2.00 B727,2013-05-12 17:51:00,
2013-05-12 11:56:00,66.0,35.3,30.45,North,351,5.0,9.0,32,0.00,,,0.00,343,LWC V2.00 B727,2013-05-12 17:56:00,
2013-05-12 12:01:00,65.3,35.5,30.44,North,5,1.0,2.0,33,0.00,,,0.00,1137,LWC V2.00 B727,2013-05-12 18:01:00,
2013-05-12 12:06:00,65.1,35.3,30.44,NE,36,4.0,4.0,33,0.00,,,0.00,369,LWC V2.00 B727,2013-05-12 18:06:00,
2013-05-12 12:11:00,65.0,39.4,30.44,NNE,28,1.0,6.0,39,0.00,,,0.00,1132,LWC V2.00 B727,2013-05-12 18:11:00,
2013-05-12 12:16:00,65.1,35.3,30.44,NE,37,3.0,4.0,33,0.00,,,0.00,318,LWC V2.00 B727,2013-05-12 18:16:00,
2013-05-12 12:21:00,64.9,37.3,30.43,North,0,4.0,4.0,36,0.00,,,0.00,262,LWC V2.00 B727,2013-05-12 18:21:00,
2013-05-12 12:26:00,65.0,36.7,30.43,NNE,19,1.0,4.0,35,0.00,,,0.00,1049,LWC V2.00 B727,2013-05-12 18:26:00,
2013-05-12 12:31:00,65.4,35.5,30.42,South,184,3.0,6.0,33,0.00,,,0.00,1134,LWC V2.00 B727,2013-05-12 18:31:00,
2013-05-12 12:36:00,67.0,39.9,30.42,NNE,13,8.0,13.0,37,0.00,,,0.00,1141,LWC V2.00 B727,2013-05-12 18:36:00,
2013-05-12 12:41:00,68.3,37.3,30.43,ENE,59,2.0,6.0,32,0.00,,,0.00,1164,LWC V2.00 B727,2013-05-12 18:41:00,
2013-05-12 12:46:00,68.3,35.7,30.42,NNE,23,7.0,12.0,30,0.00,,,0.00,1183,LWC V2.00 B727,2013-05-12 18:46:00,
2013-05-12 12:51:00,67.6,34.2,30.42,NNW,344,4.0,6.0,29,0.00,,,0.00,204,LWC V2.00 B727,2013-05-12 18:51:00,
2013-05-12 12:56:00,66.8,32.6,30.42,North,0,4.0,10.0,28,0.00,,,0.00,176,LWC V2.00 B727,2013-05-12 18:56:00,
2013-05-12 13:01:00,65.4,31.4,30.42,SW,234,4.0,6.0,28,0.00,,,0.00,234,LWC V2.00 B727,2013-05-12 19:01:00,
2013-05-12 13:06:00,65.5,32.4,30.41,NNW,346,8.0,12.0,29,0.00,,,0.00,1143,LWC V2.00 B727,2013-05-12 19:06:00,
2013-05-12 13:11:00,66.0,36.8,30.41,NNW,338,8.0,9.0,34,0.00,,,0.00,1139,LWC V2.00 B727,2013-05-12 19:11:00,
2013-05-12 13:17:00,66.8,35.2,30.41,WNW,288,1.0,5.0,31,0.00,,,0.00,1125,LWC V2.00 B727,2013-05-12 19:17:00,
2013-05-12 13:22:00,67.6,32.4,30.40,SW,236,0.0,5.0,27,0.00,,,0.00,1136,LWC V2.00 B727,2013-05-12 19:22:00,
2013-05-12 13:27:00,68.5,35.0,30.40,North,0,3.0,11.0,29,0.00,,,0.00,1190,LWC V2.00 B727,2013-05-12 19:27:00,
2013-05-12 13:32:00,69.4,34.9,30.40,North,0,7.0,11.0,28,0.00,,,0.00,1253,LWC V2.00 B727,2013-05-12 19:32:00,
2013-05-12 13:37:00,68.5,32.3,30.40,NNE,13,1.0,7.0,26,0.00,,,0.00,1153,LWC V2.00 B727,2013-05-12 19:37:00,
2013-05-12 13:42:00,69.3,33.9,30.39,NNE,18,8.0,8.0,27,0.00,,,0.00,1160,LWC V2.00 B727,2013-05-12 19:42:00,
2013-05-12 13:47:00,70.1,32.6,30.39,North,0,3.0,6.0,25,0.00,,,0.00,1109,LWC V2.00 B727,2013-05-12 19:47:00,
2013-05-12 13:52:00,70.5,34.0,30.39,NNW,342,9.0,12.0,26,0.00,,,0.00,1118,LWC V2.00 B727,2013-05-12 19:52:00,
2013-05-12 13:57:00,69.5,31.1,30.38,NNW,340,3.0,8.0,24,0.00,,,0.00,313,LWC V2.00 B727,2013-05-12 19:57:00,
2013-05-12 14:02:00,68.5,34.1,30.38,North,0,4.0,4.0,28,0.00,,,0.00,350,LWC V2.00 B727,2013-05-12 20:02:00,
2013-05-12 14:07:00,68.0,32.8,30.39,NNW,331,8.0,11.0,27,0.00,,,0.00,432,LWC V2.00 B727,2013-05-12 20:07:00,
2013-05-12 14:12:00,67.4,32.3,30.38,NNE,15,6.0,12.0,27,0.00,,,0.00,954,LWC V2.00 B727,2013-05-12 20:12:00,
2013-05-12 14:17:00,66.2,30.3,30.38,North,0,3.0,7.0,26,0.00,,,0.00,207,LWC V2.00 B727,2013-05-12 20:17:00,
2013-05-12 14:22:00,65.6,31.6,30.38,NNE,21,2.0,6.0,28,0.00,,,0.00,186,LWC V2.00 B727,2013-05-12 20:22:00,
2013-05-12 14:27:00,65.0,30.2,30.38,NNW,327,7.0,11.0,27,0.00,,,0.00,207,LWC V2.00 B727,2013-05-12 20:27:00,
2013-05-12 14:32:00,64.5,28.9,30.38,North,350,5.0,7.0,26,0.00,,,0.00,250,LWC V2.00 B727,2013-05-12 20:32:00,
2013-05-12 14:37:00,64.3,30.5,30.38,NNE,15,4.0,9.0,28,0.00,,,0.00,323,LWC V2.00 B727,2013-05-12 20:37:00,
2013-05-12 14:42:00,64.4,32.3,30.38,NNE,22,4.0,6.0,30,0.00,,,0.00,357,LWC V2.00 B727,2013-05-12 20:42:00,
2013-05-12 14:47:00,64.7,33.4,30.38,ESE,114,2.0,6.0,31,0.00,,,0.00,429,LWC V2.00 B727,2013-05-12 20:47:00,
2013-05-12 14:52:00,65.3,37.7,30.37,ENE,61,9.0,9.0,36,0.00,,,0.00,853,LWC V2.00 B727,2013-05-12 20:52:00,
2013-05-12 14:57:00,66.5,37.3,30.37,ENE,68,3.0,7.0,34,0.00,,,0.00,972,LWC V2.00 B727,2013-05-12 20:57:00,
2013-05-12 15:02:00,68.0,37.0,30.37,ESE,117,2.0,7.0,32,0.00,,,0.00,1028,LWC V2.00 B727,2013-05-12 21:02:00,
2013-05-12 15:07:00,69.3,37.4,30.36,SE,134,4.0,5.0,31,0.00,,,0.00,1009,LWC V2.00 B727,2013-05-12 21:07:00,
2013-05-12 15:12:00,70.0,36.3,30.36,SE,146,4.0,7.0,29,0.00,,,0.00,916,LWC V2.00 B727,2013-05-12 21:12:00,
2013-05-12 15:17:00,70.3,38.2,30.37,ESE,119,1.0,4.0,31,0.00,,,0.00,1035,LWC V2.00 B727,2013-05-12 21:17:00,
2013-05-12 15:22:00,69.6,35.9,30.37,East,92,2.0,5.0,29,0.00,,,0.00,248,LWC V2.00 B727,2013-05-12 21:22:00,
2013-05-12 15:27:00,68.7,38.4,30.36,NNE,26,5.0,7.0,33,0.00,,,0.00,939,LWC V2.00 B727,2013-05-12 21:27:00,
2013-05-12 15:32:00,68.9,36.2,30.36,SSW,200,3.0,7.0,30,0.00,,,0.00,847,LWC V2.00 B727,2013-05-12 21:32:00,
2013-05-12 15:37:00,69.2,37.3,30.36,South,173,0.0,1.0,31,0.00,,,0.00,867,LWC V2.00 B727,2013-05-12 21:37:00,
2013-05-12 15:42:00,70.0,37.1,30.35,East,87,3.0,5.0,30,0.00,,,0.00,849,LWC V2.00 B727,2013-05-12 21:42:00,
2013-05-12 15:47:00,70.3,39.0,30.35,ESE,119,0.0,4.0,32,0.00,,,0.00,835,LWC V2.00 B727,2013-05-12 21:47:00,
2013-05-12 15:52:00,70.8,37.0,30.35,SSE,164,5.0,6.0,29,0.00,,,0.00,838,LWC V2.00 B727,2013-05-12 21:52:00,
2013-05-12 15:57:00,70.9,37.0,30.35,East,82,3.0,3.0,29,0.00,,,0.00,856,LWC V2.00 B727,2013-05-12 21:57:00,
2013-05-12 16:02:00,71.0,34.4,30.34,WSW,241,3.0,7.0,26,0.00,,,0.00,870,LWC V2.00 B727,2013-05-12 22:02:00,
2013-05-12 16:07:00,71.2,35.5,30.34,West,267,3.0,5.0,27,0.00,,,0.00,868,LWC V2.00 B727,2013-05-12 22:07:00,
2013-05-12 16:12:00,71.0,34.4,30.34,SSE,167,0.0,1.0,26,0.00,,,0.00,248,LWC V2.00 B727,2013-05-12 22:12:00,
2013-05-12 16:17:00,70.5,34.0,30.34,SSW,196,4.0,5.0,26,0.00,,,0.00,269,LWC V2.00 B727,2013-05-12 22:17:00,
2013-05-12 16:22:00,69.0,32.7,30.34,SW,214,3.0,6.0,26,0.00,,,0.00,264,LWC V2.00 B727,2013-05-12 22:22:00,
2013-05-12 16:27:00,68.2,32.9,30.34,SSW,193,0.0,4.0,27,0.00,,,0.00,262,LWC V2.00 B727,2013-05-12 22:27:00,
2013-05-12 16:32:00,67.9,33.6,30.34,SSW,194,3.0,4.0,28,0.00,,,0.00,211,LWC V2.00 B727,2013-05-12 22:32:00,
2013-05-12 16:37:00,67.6,34.2,30.34,SSW,194,0.0,2.0,29,0.00,,,0.00,218,LWC V2.00 B727,2013-05-12 22:37:00,
2013-05-12 16:42:00,67.4,34.0,30.34,East,79,2.0,5.0,29,0.00,,,0.00,234,LWC V2.00 B727,2013-05-12 22:42:00,
2013-05-12 16:47:00,67.1,35.4,30.34,NNE,14,6.0,7.0,31,0.00,,,0.00,271,LWC V2.00 B727,2013-05-12 22:47:00,
2013-05-12 16:52:00,66.7,33.4,30.34,North,0,10.0,12.0,29,0.00,,,0.00,336,LWC V2.00 B727,2013-05-12 22:52:00,
2013-05-12 16:57:00,66.1,32.0,30.34,North,0,7.0,11.0,28,0.00,,,0.00,216,LWC V2.00 B727,2013-05-12 22:57:00,
2013-05-12 17:02:00,65.5,31.5,30.34,North,355,6.0,8.0,28,0.00,,,0.00,234,LWC V2.00 B727,2013-05-12 23:02:00,
2013-05-12 17:07:00,65.3,33.1,30.34,North,5,3.0,7.0,30,0.00,,,0.00,497,LWC V2.00 B727,2013-05-12 23:07:00,
2013-05-12 17:12:00,65.2,32.1,30.33,NNE,17,1.0,7.0,29,0.00,,,0.00,188,LWC V2.00 B727,2013-05-12 23:12:00,
2013-05-12 17:17:00,65.0,32.0,30.33,NNE,17,0.0,4.0,29,0.00,,,0.00,171,LWC V2.00 B727,2013-05-12 23:17:00,
2013-05-12 17:22:00,64.8,32.6,30.33,NNE,17,0.0,1.0,30,0.00,,,0.00,156,LWC V2.00 B727,2013-05-12 23:22:00,
2013-05-12 17:27:00,64.8,29.1,30.33,NNE,17,0.0,2.0,26,0.00,,,0.00,204,LWC V2.00 B727,2013-05-12 23:27:00,
2013-05-12 17:32:00,64.7,31.7,30.33,NNE,17,0.0,1.0,29,0.00,,,0.00,162,LWC V2.00 B727,2013-05-12 23:32:00,
2013-05-12 17:37:00,64.7,33.4,30.33,SE,133,1.0,1.0,31,0.00,,,0.00,155,LWC V2.00 B727,2013-05-12 23:37:00,
2013-05-12 17:42:00,64.4,32.3,30.33,ENE,61,0.0,1.0,30,0.00,,,0.00,139,LWC V2.00 B727,2013-05-12 23:42:00,
2013-05-12 17:47:00,64.4,33.1,30.33,ENE,61,0.0,0.0,31,0.00,,,0.00,343,LWC V2.00 B727,2013-05-12 23:47:00,
2013-05-12 17:52:00,64.6,31.6,30.33,ENE,61,0.0,0.0,29,0.00,,,0.00,135,LWC V2.00 B727,2013-05-12 23:52:00,
2013-05-12 17:57:00,64.7,31.7,30.32,ENE,61,1.0,1.0,29,0.00,,,0.00,113,LWC V2.00 B727,2013-05-12 23:57:00,
2013-05-12 18:02:00,64.7,31.7,30.32,ENE,61,0.0,1.0,29,0.00,,,0.00,127,LWC V2.00 B727,2013-05-13 00:02:00,
2013-05-12 18:07:00,64.7,32.5,30.32,ENE,60,2.0,3.0,30,0.00,,,0.00,125,LWC V2.00 B727,2013-05-13 00:07:00,
2013-05-12 18:12:00,64.5,34.0,30.32,NNE,32,0.0,0.0,32,0.00,,,0.00,109,LWC V2.00 B727,2013-05-13 00:12:00,
2013-05-12 18:17:00,64.4,34.7,30.32,NNE,32,0.0,0.0,33,0.00,,,0.00,86,LWC V2.00 B727,2013-05-13 00:17:00,
2013-05-12 18:22:00,63.9,32.7,30.32,NNE,32,1.0,3.0,31,0.00,,,0.00,72,LWC V2.00 B727,2013-05-13 00:22:00,
2013-05-12 18:27:00,63.4,33.0,30.32,NNE,32,2.0,3.0,32,0.00,,,0.00,74,LWC V2.00 B727,2013-05-13 00:27:00,
2013-05-12 18:32:00,62.9,32.6,30.33,NNE,26,4.0,4.0,32,0.00,,,0.00,83,LWC V2.00 B727,2013-05-13 00:32:00,
2013-05-12 18:37:00,62.5,32.2,30.33,NNE,22,2.0,7.0,32,0.00,,,0.00,102,LWC V2.00 B727,2013-05-13 00:37:00,
2013-05-12 18:42:00,62.2,33.5,30.33,ENE,74,3.0,5.0,34,0.00,,,0.00,105,LWC V2.00 B727,2013-05-13 00:42:00,
2013-05-12 18:47:00,61.9,34.7,30.33,ENE,67,8.0,8.0,36,0.00,,,0.00,81,LWC V2.00 B727,2013-05-13 00:47:00,
2013-05-12 18:52:00,61.3,34.1,30.33,ENE,64,3.0,3.0,36,0.00,,,0.00,69,LWC V2.00 B727,2013-05-13 00:52:00,
2013-05-12 18:57:00,60.7,33.6,30.33,East,96,1.0,5.0,36,0.00,,,0.00,62,LWC V2.00 B727,2013-05-13 00:57:00,
2013-05-12 19:02:00,60.2,33.8,30.33,East,88,2.0,5.0,37,0.00,,,0.00,47,LWC V2.00 B727,2013-05-13 01:02:00,
2013-05-12 19:07:00,59.9,34.2,30.33,ESE,115,0.0,2.0,38,0.00,,,0.00,42,LWC V2.00 B727,2013-05-13 01:07:00,
2013-05-12 19:12:00,59.5,34.5,30.33,ESE,107,0.0,2.0,39,0.00,,,0.00,32,LWC V2.00 B727,2013-05-13 01:12:00,
2013-05-12 19:17:00,59.1,34.2,30.33,ESE,117,0.0,1.0,39,0.00,,,0.00,30,LWC V2.00 B727,2013-05-13 01:17:00,
2013-05-12 19:22:00,59.0,34.1,30.33,ESE,117,0.0,0.0,39,0.00,,,0.00,28,LWC V2.00 B727,2013-05-13 01:22:00,
2013-05-12 19:27:00,59.0,34.7,30.33,ESE,117,0.0,0.0,40,0.00,,,0.00,28,LWC V2.00 B727,2013-05-13 01:27:00,
2013-05-12 19:32:00,58.6,33.7,30.33,SE,125,1.0,4.0,39,0.00,,,0.00,21,LWC V2.00 B727,2013-05-13 01:32:00,
2013-05-12 19:37:00,58.2,33.4,30.33,SSE,160,3.0,3.0,39,0.00,,,0.00,18,LWC V2.00 B727,2013-05-13 01:37:00,
2013-05-12 19:42:00,57.9,33.1,30.33,SSE,161,0.0,1.0,39,0.00,,,0.00,16,LWC V2.00 B727,2013-05-13 01:42:00,
2013-05-12 19:47:00,57.6,32.8,30.33,SSE,160,0.0,0.0,39,0.00,,,0.00,14,LWC V2.00 B727,2013-05-13 01:47:00,
2013-05-12 19:52:00,57.4,32.6,30.33,SSE,160,0.0,0.0,39,0.00,,,0.00,12,LWC V2.00 B727,2013-05-13 01:52:00,
2013-05-12 19:57:00,57.1,33.0,30.33,SSE,161,0.0,0.0,40,0.00,,,0.00,5,LWC V2.00 B727,2013-05-13 01:57:00,
2013-05-12 20:02:00,56.5,34.9,30.34,SSE,161,0.0,1.0,44,0.00,,,0.00,0,LWC V2.00 B727,2013-05-13 02:02:00,
2013-05-12 20:07:00,55.5,33.4,30.34,SSE,161,0.0,0.0,43,0.00,,,0.00,0,LWC V2.00 B727,2013-05-13 02:07:00,
2013-05-12 20:12:00,54.9,32.8,30.34,SSE,161,0.0,0.0,43,0.00,,,0.00,0,LWC V2.00 B727,2013-05-13 02:12:00,
2013-05-12 20:17:00,54.1,33.2,30.34,SSE,161,1.0,3.0,45,0.00,,,0.00,0,LWC V2.00 B727,2013-05-13 02:17:00,
2013-05-12 20:22:00,53.3,33.1,30.34,SSE,160,0.0,1.0,46,0.00,,,0.00,0,LWC V2.00 B727,2013-05-13 02:22:00,
2013-05-12 20:27:00,52.7,32.0,30.34,SSE,160,0.0,3.0,45,0.00,,,0.00,0,LWC V2.00 B727,2013-05-13 02:27:00,
2013-05-12 20:32:00,52.2,31.5,30.34,SSE,161,0.0,2.0,45,0.00,,,0.00,0,LWC V2.00 B727,2013-05-13 02:32:00,
2013-05-12 20:37:00,51.8,31.7,30.34,SSE,161,1.0,2.0,46,0.00,,,0.00,0,LWC V2.00 B727,2013-05-13 02:37:00,
2013-05-12 20:42:00,51.4,31.3,30.34,SSE,161,0.0,2.0,46,0.00,,,0.00,0,LWC V2.00 B727,2013-05-13 02:42:00,
2013-05-12 20:47:00,51.0,32.5,30.35,SSE,161,0.0,0.0,49,0.00,,,0.00,0,LWC V2.00 B727,2013-05-13 02:47:00,
2013-05-12 20:52:00,50.6,31.1,30.35,SSE,153,1.0,1.0,47,0.00,,,0.00,0,LWC V2.00 B727,2013-05-13 02:52:00,
2013-05-12 20:57:00,50.3,30.8,30.35,SSE,153,0.0,3.0,47,0.00,,,0.00,0,LWC V2.00 B727,2013-05-13 02:57:00,
2013-05-12 21:02:00,49.9,31.0,30.35,SSE,153,0.0,1.0,48,0.00,,,0.00,0,LWC V2.00 B727,2013-05-13 03:02:00,
2013-05-12 21:07:00,49.6,30.2,30.36,SSE,153,1.0,2.0,47,0.00,,,0.00,0,LWC V2.00 B727,2013-05-13 03:07:00,
2013-05-12 21:12:00,49.2,29.8,30.36,SSE,153,0.0,3.0,47,0.00,,,0.00,0,LWC V2.00 B727,2013-05-13 03:12:00,
2013-05-12 21:17:00,49.0,29.7,30.36,SSE,157,0.0,3.0,47,0.00,,,0.00,0,LWC V2.00 B727,2013-05-13 03:17:00,
2013-05-12 21:22:00,48.8,30.0,30.36,SSE,157,0.0,0.0,48,0.00,,,0.00,0,LWC V2.00 B727,2013-05-13 03:22:00,
2013-05-12 21:27:00,48.4,30.1,30.36,SSE,157,0.0,0.0,49,0.00,,,0.00,0,LWC V2.00 B727,2013-05-13 03:27:00,
2013-05-12 21:32:00,48.1,29.9,30.37,SSE,156,2.0,2.0,49,0.00,,,0.00,0,LWC V2.00 B727,2013-05-13 03:32:00,
2013-05-12 21:37:00,47.8,29.1,30.37,SSE,157,0.0,2.0,48,0.00,,,0.00,0,LWC V2.00 B727,2013-05-13 03:37:00,
2013-05-12 21:42:00,47.6,28.9,30.37,SSE,157,0.0,1.0,48,0.00,,,0.00,0,LWC V2.00 B727,2013-05-13 03:42:00,
2013-05-12 21:47:00,47.4,29.2,30.37,SSE,157,0.0,1.0,49,0.00,,,0.00,0,LWC V2.00 B727,2013-05-13 03:47:00,
2013-05-12 21:52:00,47.2,29.0,30.38,SSE,157,0.0,0.0,49,0.00,,,0.00,0,LWC V2.00 B727,2013-05-13 03:52:00,
2013-05-12 21:57:00,47.0,28.8,30.38,SSE,156,0.0,0.0,49,0.00,,,0.00,0,LWC V2.00 B727,2013-05-13 03:57:00,
2013-05-12 22:01:00,46.8,29.2,30.38,SE,145,0.0,0.0,50,0.00,,,0.00,0,LWC V2.00 B727,2013-05-13 04:01:00,
2013-05-12 22:06:00,46.7,29.1,30.38,SE,145,0.0,0.0,50,0.00,,,0.00,0,LWC V2.00 B727,2013-05-13 04:06:00,
2013-05-12 22:11:00,46.6,29.0,30.38,SE,146,0.0,0.0,50,0.00,,,0.00,0,LWC V2.00 B727,2013-05-13 04:11:00,
2013-05-12 22:16:00,46.5,29.4,30.38,SE,146,0.0,0.0,51,0.00,,,0.00,0,LWC V2.00 B727,2013-05-13 04:16:00,
2013-05-12 22:21:00,46.4,28.8,30.38,SE,145,0.0,0.0,50,0.00,,,0.00,0,LWC V2.00 B727,2013-05-13 04:21:00,
2013-05-12 22:26:00,46.3,28.7,30.38,SSE,149,2.0,4.0,50,0.00,,,0.00,0,LWC V2.00 B727,2013-05-13 04:26:00,
2013-05-12 22:31:00,46.3,28.7,30.38,SSE,149,1.0,3.0,50,0.00,,,0.00,0,LWC V2.00 B727,2013-05-13 04:31:00,
2013-05-12 22:36:00,46.4,28.8,30.38,SSE,149,1.0,2.0,50,0.00,,,0.00,0,LWC V2.00 B727,2013-05-13 04:36:00,
2013-05-12 22:41:00,46.4,28.8,30.39,SSE,149,0.0,3.0,50,0.00,,,0.00,0,LWC V2.00 B727,2013-05-13 04:41:00,
2013-05-12 22:46:00,46.4,28.3,30.39,SSE,150,0.0,1.0,49,0.00,,,0.00,0,LWC V2.00 B727,2013-05-13 04:46:00,
2013-05-12 22:51:00,46.4,28.3,30.39,SSE,150,1.0,1.0,49,0.00,,,0.00,0,LWC V2.00 B727,2013-05-13 04:51:00,
2013-05-12 22:56:00,46.5,28.4,30.39,SSE,150,1.0,3.0,49,0.00,,,0.00,0,LWC V2.00 B727,2013-05-13 04:56:00,
2013-05-12 23:01:00,46.5,28.4,30.39,South,174,3.0,5.0,49,0.00,,,0.00,0,LWC V2.00 B727,2013-05-13 05:01:00,
2013-05-12 23:06:00,46.7,29.1,30.39,South,175,0.0,0.0,50,0.00,,,0.00,0,LWC V2.00 B727,2013-05-13 05:06:00,
2013-05-12 23:11:00,46.8,29.6,30.39,South,175,0.0,0.0,51,0.00,,,0.00,0,LWC V2.00 B727,2013-05-13 05:11:00,
2013-05-12 23:16:00,46.8,29.2,30.39,South,175,0.0,0.0,50,0.00,,,0.00,0,LWC V2.00 B727,2013-05-13 05:16:00,
2013-05-12 23:21:00,46.7,28.6,30.39,South,175,0.0,0.0,49,0.00,,,0.00,0,LWC V2.00 B727,2013-05-13 05:21:00,
2013-05-12 23:26:00,46.5,29.4,30.39,South,175,0.0,0.0,51,0.00,,,0.00,0,LWC V2.00 B727,2013-05-13 05:26:00,
2013-05-12 23:31:00,46.1,28.5,30.39,South,175,0.0,0.0,50,0.00,,,0.00,0,LWC V2.00 B727,2013-05-13 05:31:00,
2013-05-12 23:36:00,45.7,28.6,30.39,South,175,0.0,0.0,51,0.00,,,0.00,0,LWC V2.00 B727,2013-05-13 05:36:00,
2013-05-12 23:41:00,45.2,28.2,30.39,South,175,0.0,0.0,51,0.00,,,0.00,0,LWC V2.00 B727,2013-05-13 05:41:00,
2013-05-12 23:46:00,44.8,28.3,30.39,South,175,0.0,0.0,52,0.00,,,0.00,0,LWC V2.00 B727,2013-05-13 05:46:00,
2013-05-12 23:51:00,44.3,28.3,30.40,South,175,0.0,0.0,53,0.00,,,0.00,0,LWC V2.00 B727,2013-05-13 05:51:00,
2013-05-12 23:56:00,43.8,27.8,30.40,South,175,0.0,0.0,53,0.00,,,0.00,0,LWC V2.00 B727,2013-05-13 05:56:00,